Strona główna
METAR-TAF:

METAR-TAF

Lotnisko :

Harding County Airport

Buffalo, Dakota Południowa, Stany Zjednoczone

Szerokość geograficzna: 45-36-16N, Długość geograficzna: 103-32-47W, wysokość: 915 m

Aktualna obserwacja pogody

Raport powstał 14 minut temu, godzina 22:56 UTC
Wiatr 13 kt od południowo-południowy zachód w porywach dochodzący do 19 kt
Temperatura 21°C
Wilgotność 13%
Ciśnienie 1000 hPa

METAR: K2WX 102256Z AUTO 21013G19KT 21/M08 A2953 RMK AO1 SLP000 T02061078

czas: 17:10 (23:10 UTC)


TAF: brakujący

Obserwacja i prognoza pogody dla ponad 4000 lotnisk (raport METAR i TAF).

Dostępne stacje oznaczono żółtymi i czerwonymi punktami na mapie.

Najedź kursorem aby zobaczyć nazwę stacji.

Kliknij aby zobaczyć obserwacje i prognozy pogody.

Aby zmienić mapę: kliknij na zielony przycisk z czarnym krzyżykiem, aby powiększyć; na zielony przycisk z myślnikiem, aby pomniejszyć; na zielone strzałki, aby przejść do map sąsiednich.


METAR-TAF: